Flag for U.S.A. Weather past 2 weeks in Key West, Florida, U.S.A.

Now
74 °F

Passing clouds.


Feels Like: 76 °F
Forecast: 76 / 83 °F
Wind: 14 mph from Northeast

Location: Key West International Airport

Current Time: May 4, 2015 at 7:02:47 AM

Latest Report: May 4, 2015 at 5:53 AM


Visibility: 10 mi

Pressure: 30.05 "Hg

Humidity: 64%

Dew point: 61 °F

Location of Key WestLocation

Historic Weather in Key West — Graph

°F

Key West temperature yesterday

Maximum temperature yesterday: 81 °F (at 12:53 PM)
Minimum temperature yesterday: 74 °F (at 5:53 AM)
Average temperature yesterday: 77 °F

Past Weeks' High & Low Weather Summary

 TemperatureHumidityPressure
High89 °F (Apr 26, 5:53 PM)100% (Apr 29, 9:53 AM)30.09 "Hg (Apr 29, 9:53 AM)
Low72 °F (Apr 22, 4:53 AM)51% (May 1, 12:53 PM)29.69 "Hg (Apr 29, 3:53 AM)
Average81 °F76%29.91 "Hg
* Reported Apr 19 5:53 AM — May 4 5:53 AM, Key West, Weather by CustomWeather, © 2015

Note: Actual official high and low records may vary slightly from our data, if they occured in-between our weather recording intervals... More about our weather records

Advertising

Key West weather history for previous 24 hours

 ConditionsComfort  
Time TempWeatherWind HumidityBarometerVisibility
5:53 AM
Mon, May 4
74 °FPassing clouds.14 mph64%30.05 "Hg10 mi
4:53 AM74 °FMostly cloudy.13 mph71%30.04 "Hg10 mi
3:53 AM75 °FPassing clouds.9 mph66%30.04 "Hg10 mi
2:53 AM75 °FOvercast.9 mph62%30.06 "Hg10 mi
1:53 AM75 °FPassing clouds.12 mph62%30.07 "Hg10 mi
12:53 AM76 °FClear.16 mph60%30.09 "Hg10 mi
11:53 PM
Sun, May 3
76 °FClear.14 mph60%30.09 "Hg10 mi
10:53 PM76 °FPassing clouds.14 mph62%30.08 "Hg10 mi
9:53 PM76 °FClear.16 mph64%30.07 "Hg10 mi
8:53 PM76 °FPassing clouds.14 mph62%30.06 "Hg10 mi
7:53 PM77 °FSunny.10 mph60%30.06 "Hg10 mi
6:53 PM78 °FPassing clouds.16 mph62%30.05 "Hg10 mi
5:53 PM80 °FSunny.18 mph58%30.04 "Hg10 mi
4:53 PM80 °FPassing clouds.18 mph58%30.05 "Hg10 mi
3:53 PM81 °FPassing clouds.20 mph56%30.05 "Hg10 mi
2:53 PM81 °FSunny.21 mph54%30.05 "Hg10 mi
1:53 PM81 °FPassing clouds.20 mph56%30.06 "Hg10 mi
12:53 PM81 °FScattered clouds.21 mph56%30.07 "Hg10 mi
11:53 AM80 °FScattered clouds.20 mph56%30.08 "Hg10 mi
10:53 AM80 °FPassing clouds.16 mph58%30.08 "Hg10 mi
9:53 AM78 °FSunny.16 mph56%30.07 "Hg10 mi
8:53 AM76 °FSunny.15 mph58%30.06 "Hg10 mi
7:53 AM75 °FSunny.15 mph64%30.04 "Hg10 mi
Weather by CustomWeather, © 2015

See weather overviewHow to use our weather pages